Weather History for Michigan City, IN

Change the Weather History Date:

Saturday, September 21, 2013

  Actual Average (KVPZ) Record (KVPZ)
Temperature  
Mean Temperature 56 °F 61 °F  
Max Temperature 62 °F 73 °F 91 °F (2010)
Min Temperature 50 °F 50 °F 37 °F (2006)
Degree Days  
Heating Degree Days 9 5  
Month to date heating degree days 53  
Since 1 July heating degree days 70  
Cooling Degree Days 0 1  
Month to date cooling degree days 56  
Year to date cooling degree days 692  
Growing Degree Days 6 (Base 50)    
Moisture  
Dew Point 48 °F    
Average Humidity 66    
Maximum Humidity 82    
Minimum Humidity 52    
Precipitation  
Precipitation 0.00 in 0.10 in 0.64 in (2010)
Month to date precipitation 2.26  
Year to date precipitation 27.80  
Sea Level Pressure  
Sea Level Pressure 29.86 in    
Wind  
Wind Speed 8 mph (NNW)    
Max Wind Speed 14 mph    
Max Gust Speed 22 mph    
Visibility 10 miles    
Events      
T = Trace of Precipitation, MM = Missing Value Source: NWS Daily Summary

Daily Weather History Graph

Daily Weather History Graph

Search for Another Location

Airport:

Trip Planner

Search our weather history database for the weather conditions in past years. The results will help you decide how hot, cold, wet, or windy it might be!

Date:

Astronomy

Sep. 21, 2013 Rise Set
Actual Time 6:33 AM CDT 6:45 PM CDT
Civil Twilight 6:06 AM CDT 7:13 PM CDT
Nautical Twilight 5:33 AM CDT 7:46 PM CDT
Astronomical Twilight 5:00 AM CDT 8:19 PM CDT
Moon 7:53 PM CDT (9/21) 8:54 AM CDT (9/21)
Length of Visible Light 13h 07m
Length of Day
12h 11m
Waning Gibbous, 94% of the Moon is Illuminated
Sep 21
Waning Gibbous
Sep 26
Last Quarter
Oct 4
New
Oct 11
First Quarter
Oct 18
Full

Hourly Weather History & Observations

Time (CDT) Temp. Dew Point Humidity Pressure Visibility Wind Dir Wind Speed Gust Speed Precip Events Conditions
12:15 AM 60.8 °F 51.8 °F 72% 29.82 in 10.0 mi WNW 6.9 mph 17.3 mph N/A   Overcast
12:35 AM 60.8 °F 51.8 °F 72% 29.81 in 10.0 mi WNW 6.9 mph 16.1 mph N/A   Overcast
12:55 AM 60.8 °F 51.8 °F 72% 29.81 in 10.0 mi NW 9.2 mph - N/A   Overcast
1:15 AM 60.8 °F 51.8 °F 72% 29.81 in 10.0 mi NW 6.9 mph - N/A   Overcast
1:35 AM 60.8 °F 53.6 °F 77% 29.81 in 10.0 mi NW 6.9 mph - N/A   Overcast
1:55 AM 60.8 °F 53.6 °F 77% 29.81 in 10.0 mi NW 8.1 mph 18.4 mph N/A   Overcast
2:15 AM 60.8 °F 53.6 °F 77% 29.80 in 10.0 mi NW 8.1 mph - N/A   Overcast
2:35 AM 60.8 °F 51.8 °F 72% 29.80 in 10.0 mi NNW 5.8 mph - N/A   Overcast
2:55 AM 60.8 °F 53.6 °F 77% 29.79 in 10.0 mi NNW 8.1 mph - N/A   Overcast
3:15 AM 60.8 °F 51.8 °F 72% 29.79 in 10.0 mi NW 5.8 mph - N/A   Overcast
3:35 AM 60.8 °F 51.8 °F 72% 29.79 in 10.0 mi NNW 6.9 mph - N/A   Overcast
3:55 AM 60.8 °F 51.8 °F 72% 29.79 in 10.0 mi NW 9.2 mph - N/A   Overcast
4:15 AM 60.8 °F 51.8 °F 72% 29.79 in 10.0 mi NW 6.9 mph - N/A   Overcast
4:35 AM 60.8 °F 53.6 °F 77% 29.79 in 10.0 mi NNW 9.2 mph - N/A   Overcast
4:55 AM 60.8 °F 53.6 °F 77% 29.79 in 10.0 mi NW 4.6 mph 16.1 mph N/A   Overcast
5:15 AM 60.8 °F 51.8 °F 72% 29.79 in 10.0 mi NW 4.6 mph - N/A   Overcast
5:35 AM 60.8 °F 53.6 °F 77% 29.79 in 10.0 mi NW 9.2 mph - N/A   Overcast
5:55 AM 59.0 °F 51.8 °F 77% 29.79 in 10.0 mi NW 8.1 mph - N/A   Overcast
6:15 AM 60.8 °F 51.8 °F 72% 29.80 in 10.0 mi NNW 6.9 mph - N/A   Overcast
6:35 AM 59.0 °F 51.8 °F 77% 29.80 in 10.0 mi NW 9.2 mph - N/A   Mostly Cloudy
6:55 AM 60.8 °F 51.8 °F 72% 29.81 in 10.0 mi NNW 8.1 mph 20.7 mph N/A   Overcast
7:15 AM 59.0 °F 50.0 °F 72% 29.82 in 10.0 mi North 11.5 mph 18.4 mph N/A   Mostly Cloudy
7:35 AM 59.0 °F 50.0 °F 72% 29.82 in 10.0 mi NNW 10.4 mph - N/A   Scattered Clouds
7:55 AM 60.8 °F 50.0 °F 68% 29.82 in 10.0 mi NNW 11.5 mph 17.3 mph N/A   Scattered Clouds
8:15 AM 60.8 °F 48.2 °F 63% 29.83 in 10.0 mi North 11.5 mph 16.1 mph N/A   Mostly Cloudy
8:35 AM 60.8 °F 50.0 °F 68% 29.83 in 10.0 mi NNW 9.2 mph 16.1 mph N/A   Mostly Cloudy
8:55 AM 60.8 °F 46.4 °F 59% 29.84 in 10.0 mi NNW 9.2 mph 19.6 mph N/A   Mostly Cloudy
9:15 AM 60.8 °F 48.2 °F 63% 29.85 in 10.0 mi North 11.5 mph 19.6 mph N/A   Mostly Cloudy
9:35 AM 60.8 °F 46.4 °F 59% 29.85 in 10.0 mi North 13.8 mph 19.6 mph N/A   Scattered Clouds
9:55 AM 60.8 °F 46.4 °F 59% 29.86 in 10.0 mi North 9.2 mph 18.4 mph N/A   Mostly Cloudy
10:15 AM 60.8 °F 48.2 °F 63% 29.86 in 10.0 mi NW 8.1 mph 17.3 mph N/A   Mostly Cloudy
10:35 AM 60.8 °F 46.4 °F 59% 29.86 in 10.0 mi NNW 11.5 mph 17.3 mph N/A   Mostly Cloudy
10:55 AM 60.8 °F 48.2 °F 63% 29.87 in 10.0 mi NNW 8.1 mph - N/A   Mostly Cloudy
11:15 AM 62.6 °F 50.0 °F 63% 29.87 in 10.0 mi NW 10.4 mph 19.6 mph N/A   Mostly Cloudy
11:35 AM 62.6 °F 50.0 °F 63% 29.87 in 10.0 mi NNW 9.2 mph 18.4 mph N/A   Overcast
11:55 AM 62.6 °F 48.2 °F 59% 29.87 in 10.0 mi NNW 12.7 mph 17.3 mph N/A   Mostly Cloudy
12:15 PM 62.6 °F 48.2 °F 59% 29.88 in 10.0 mi NNW 9.2 mph 18.4 mph N/A   Mostly Cloudy
12:35 PM 62.6 °F 46.4 °F 55% 29.88 in 10.0 mi North 12.7 mph 17.3 mph N/A   Mostly Cloudy
12:55 PM 62.6 °F 44.6 °F 52% 29.88 in 10.0 mi NW 9.2 mph 18.4 mph N/A   Mostly Cloudy
1:15 PM 62.6 °F 46.4 °F 55% 29.88 in 10.0 mi NNW 12.7 mph 20.7 mph N/A   Mostly Cloudy
1:35 PM 62.6 °F 46.4 °F 55% 29.88 in 10.0 mi North 13.8 mph 18.4 mph N/A   Mostly Cloudy
1:55 PM 60.8 °F 44.6 °F 55% 29.88 in 10.0 mi NW 11.5 mph 21.9 mph N/A   Mostly Cloudy
2:15 PM 62.6 °F 44.6 °F 52% 29.89 in 10.0 mi NNW 8.1 mph 16.1 mph N/A   Scattered Clouds
2:35 PM 60.8 °F 44.6 °F 55% 29.89 in 10.0 mi North 9.2 mph - N/A   Mostly Cloudy
2:55 PM 60.8 °F 44.6 °F 55% 29.88 in 10.0 mi North 10.4 mph 16.1 mph N/A   Overcast
3:15 PM 60.8 °F 44.6 °F 55% 29.89 in 10.0 mi NNW 10.4 mph 18.4 mph N/A   Overcast
3:35 PM 62.6 °F 44.6 °F 52% 29.88 in 10.0 mi NNW 10.4 mph 18.4 mph N/A   Mostly Cloudy
3:55 PM 62.6 °F 46.4 °F 55% 29.89 in 10.0 mi North 12.7 mph 17.3 mph N/A   Mostly Cloudy
4:15 PM 60.8 °F 44.6 °F 55% 29.88 in 10.0 mi North 11.5 mph 17.3 mph N/A   Overcast
4:35 PM 60.8 °F 44.6 °F 55% 29.88 in 10.0 mi NNW 6.9 mph - N/A   Overcast
4:55 PM 60.8 °F 44.6 °F 55% 29.89 in 10.0 mi North 13.8 mph - N/A   Overcast
5:15 PM 60.8 °F 46.4 °F 59% 29.89 in 10.0 mi North 8.1 mph - N/A   Overcast
5:35 PM 59.0 °F 44.6 °F 59% 29.89 in 10.0 mi NNW 9.2 mph - N/A   Scattered Clouds
5:55 PM 59.0 °F 44.6 °F 59% 29.90 in 10.0 mi North 10.4 mph - N/A   Mostly Cloudy
6:15 PM 57.2 °F 44.6 °F 63% 29.89 in 10.0 mi North 8.1 mph - N/A   Mostly Cloudy
6:35 PM 57.2 °F 44.6 °F 63% 29.90 in 10.0 mi North 8.1 mph - N/A   Overcast
6:55 PM 57.2 °F 44.6 °F 63% 29.89 in 10.0 mi North 9.2 mph - N/A   Overcast
7:15 PM 57.2 °F 42.8 °F 59% 29.90 in 10.0 mi NNW 5.8 mph - N/A   Overcast
7:35 PM 57.2 °F 42.8 °F 59% 29.91 in 10.0 mi North 4.6 mph - N/A   Overcast
7:55 PM 55.4 °F 42.8 °F 63% 29.91 in 10.0 mi NNW 5.8 mph - N/A   Mostly Cloudy
8:15 PM 55.4 °F 42.8 °F 63% 29.91 in 10.0 mi NNW 4.6 mph - N/A   Scattered Clouds
8:35 PM 53.6 °F 42.8 °F 67% 29.91 in 10.0 mi NNW 3.5 mph - N/A   Clear
8:55 PM 53.6 °F 42.8 °F 67% 29.91 in 10.0 mi Calm Calm - N/A   Clear
9:15 PM 51.8 °F 44.6 °F 76% 29.92 in 10.0 mi Calm Calm - N/A   Scattered Clouds
9:35 PM 51.8 °F 42.8 °F 71% 29.92 in 10.0 mi Calm Calm - N/A   Scattered Clouds
9:55 PM 50.0 °F 44.6 °F 82% 29.92 in 10.0 mi Calm Calm - N/A   Scattered Clouds
10:15 PM 51.8 °F 44.6 °F 76% 29.93 in 10.0 mi Calm Calm - N/A   Mostly Cloudy
10:35 PM 53.6 °F 46.4 °F 77% 29.93 in 10.0 mi Calm Calm - N/A   Overcast
10:55 PM 55.4 °F 44.6 °F 67% 29.93 in 10.0 mi NNW 3.5 mph - N/A   Mostly Cloudy
11:15 PM 55.4 °F 44.6 °F 67% 29.92 in 10.0 mi NNW 8.1 mph - N/A   Mostly Cloudy
11:35 PM 55.4 °F 46.4 °F 72% 29.93 in 10.0 mi NNW 4.6 mph - N/A   Overcast
11:55 PM 57.2 °F 46.4 °F 67% 29.93 in 10.0 mi NNW 5.8 mph - N/A   Overcast